This demonstration page uses our WeatherBlox Daily Observations layout. Learn more.

Left ArrowRight Arrow

38.89511, -77.03637

Hourly Observations for July 13, 2015

Temp ( °F °C ) Dew Point ( °F °C ) Humidity (%) Winds ( mph kmh ) Pressure ( in mb ) Visibility ( mi km ) Precip ( " mm )
12:52 am 00:52 Cloudy 78 25.6 66 18.9 67 67 S 6 9 29.96 1015 10 16 N/A
1:52 am 01:52 Mostly Cloudy 77 25 67 19.4 71 71 S 3 6 29.96 1014 10 16 N/A
2:52 am 02:52 Mostly Cloudy 76 24.4 68 20 77 77 S 5 7 29.93 1014 10 16 N/A
3:52 am 03:52 Mostly Cloudy 75 23.9 68 20 79 79 SW 5 7 29.92 1013 8 13 N/A
4:52 am 04:52 Mostly Cloudy 74 23.3 67 19.4 79 79 SSW 6 9 29.92 1013 10 16 N/A
5:52 am 05:52 Mostly Cloudy 75 23.9 67 19.4 76 76 SSE 3 6 29.91 1013 10 16 N/A
6:52 am 06:52 Mostly Cloudy 76 24.4 68 20 77 77 SSE 3 6 29.93 1013 10 16 N/A
7:52 am 07:52 Mostly Cloudy with Light Rain 77 25 67 19.4 71 71 SSW 5 7 29.92 1013 10 16 N/A
8:52 am 08:52 Cloudy 77 25 68 20 74 74 S 3 6 29.92 1013 10 16 N/A
9:52 am 09:52 Cloudy 78 25.6 68 20 71 71 SSE 6 9 29.91 1013 10 16 N/A
10:52 am 10:52 Cloudy with Light Rain 78 25.6 68 20 71 71 S 7 11 29.91 1013 10 16 N/A
11:19 am 11:19 Cloudy with Light Rain 77 25 68 20 74 74 SW 7 11 29.91 1013 10 16 N/A
11:41 am 11:41 Cloudy with Light Rain 77 25 70 21 79 79 SW 5 7 29.91 1013 5 8 0.01 0.25
11:52 am 11:52 Cloudy with Light Rain 77 25 70 21.1 79 79 WSW 7 11 29.92 1013 5 8 0.03 0.76
12:52 pm 12:52 Cloudy 77 25 70 21.1 79 79 SW 3 6 29.91 1013 10 16 N/A
1:52 pm 13:52 Cloudy 78 25.6 70 21.1 76 76 N N/A 29.88 1012 10 16 N/A
2:52 pm 14:52 Cloudy 78 25.6 69 20.6 74 74 SSW 7 11 29.87 1011 10 16 N/A
3:52 pm 15:52 Cloudy 80 26.7 69 20.6 69 69 SSE 3 6 29.85 1011 10 16 N/A
4:52 pm 16:52 Cloudy 81 27.2 68 20 65 65 SE 6 9 29.82 1010 10 16 N/A
5:52 pm 17:52 Cloudy 81 27.2 68 20 65 65 ESE 7 11 29.80 1009 10 16 N/A
6:52 pm 18:52 Cloudy 81 27.2 69 20.6 67 67 SE 7 11 29.80 1009 10 16 N/A
7:52 pm 19:52 Cloudy 80 26.7 69 20.6 69 69 SSE 3 6 29.81 1010 10 16 N/A
8:52 pm 20:52 Cloudy with Light Rain 79 26.1 70 21.1 74 74 S 7 11 29.80 1009 7 11 N/A
9:52 pm 21:52 Mostly Cloudy 78 25.6 71 21.7 79 79 SSE 5 7 29.78 1008 10 16 N/A
10:52 pm 22:52 Mostly Cloudy 77 25 71 21.7 82 82 SE 3 6 29.76 1008 10 16 N/A
11:52 pm 23:52 Cloudy 77 25 72 22.2 85 85 S 3 6 29.75 1008 10 16 N/A
11:59 pm 23:59 Cloudy 77 25 72 22 83 83 S 3 6 29.74 1007 10 16 N/A

Powered by AerisWeather